GFSCGP_sfc_rhum_000.txt.gz
RH
32 31 34 35 36 33 34 38 46 43 36 42 48 47 36 30 31 30 31 31 37 39 43 45 46 48 50 52 44 40 46 48 52 54 54 56 55 53 57 60 62 68 76 80
32 34 31 30 31 31 35 43 39 38 39 49 46 42 29 31 33 39 40 42 39 40 40 39 42 49 44 44 43 39 37 39 42 48 50 53 52 53 54 56 57 60 64 70
36 32 29 29 33 36 39 40 42 42 43 53 46 39 37 28 32 32 34 39 40 39 36 40 40 41 40 39 41 40 39 40 44 48 52 52 55 55 54 49 54 51 58 58
34 27 30 36 35 39 47 34 42 46 56 53 49 47 42 41 33 35 35 35 39 41 43 40 40 40 40 40 43 44 45 46 46 52 54 57 57 58 54 57 54 50 57 63
36 31 36 40 39 41 42 48 54 54 60 64 51 50 40 40 36 37 41 37 43 38 36 36 37 39 46 52 53 64 58 55 56 57 61 65 62 68 68 66 69 66 67 70
50 36 36 39 38 46 43 55 50 60 60 69 60 56 50 46 42 40 42 42 39 47 38 40 46 52 59 60 60 59 56 54 56 59 61 64 66 64 64 57 71 75 80 80
53 49 47 41 47 46 52 59 69 68 78 77 58 57 45 40 40 41 41 41 41 44 49 47 55 60 59 60 61 59 60 58 60 65 56 55 58 61 60 56 63 76 83 80
74 57 52 43 51 56 58 63 81 66 90 84 63 62 48 40 42 37 39 53 58 60 62 64 62 62 60 60 62 67 65 64 68 64 53 57 60 63 61 64 71 84 80 83
85 64 53 53 55 52 59 72 63 82 97 92 78 63 47 50 50 46 54 54 56 55 56 58 55 58 59 60 62 69 70 69 72 70 61 68 69 64 61 64 78 82 82 84
70 78 61 53 52 49 53 53 72 88 92 91 80 76 68 60 55 58 59 57 58 56 56 56 57 59 61 65 70 72 72 72 77 64 65 62 67 65 66 76 80 78 82 88
64 69 56 56 59 68 65 76 72 72 88 95 97 78 63 60 61 61 62 63 65 62 56 59 64 68 70 71 72 76 74 77 84 65 71 72 66 70 72 77 78 81 84 78
69 76 83 62 57 64 67 69 68 86 77 93 95 81 54 54 60 57 62 63 65 63 61 62 69 72 73 72 73 79 80 85 69 70 72 71 73 70 71 74 72 70 63 62
66 78 81 51 54 57 70 72 71 80 87 85 96 77 52 55 59 60 66 67 68 68 67 66 67 72 74 75 78 80 81 78 75 74 79 70 64 67 73 73 80 80 78 70
65 75 67 76 59 66 80 79 75 80 92 84 82 67 55 54 60 69 72 72 69 70 70 72 74 75 78 76 83 84 86 79 81 86 80 82 81 75 82 94 94 87 81 72
71 82 81 75 70 75 75 80 81 89 83 89 70 80 67 64 63 73 71 72 72 69 72 76 82 72 70 77 86 87 81 82 91 93 92 90 87 90 95 94 93 89 88 84
82 85 91 90 88 90 94 84 86 86 87 89 84 87 64 62 81 80 77 76 79 80 81 84 77 78 80 83 85 82 81 86 92 92 94 92 91 85 87 89 91 91 91 89
82 94 98 89 92 92 76 67 83 80 74 73 74 58 68 82 79 75 72 86 88 91 81 73 65 69 74 81 85 83 84 91 93 80 64 70 70 74 81 85 90 86 76 71
98 96 97 98 91 97 60 60 54 66 62 58 67 68 75 80 78 76 85 89 90 82 76 70 63 66 80 78 79 85 81 77 68 70 77 77 71 68 67 64 63 66 63 61
90 98 98 98 95 82 67 59 69 72 66 61 73 78 81 71 81 80 89 88 86 84 78 74 76 77 80 82 68 59 61 62 69 82 86 82 67 67 67 68 66 64 64 66
93 93 95 99 99 97 69 59 61 77 88 80 76 68 64 78 94 81 85 85 81 68 68 74 76 79 81 81 67 57 72 69 66 72 68 64 69 73 74 68 67 65 71 74
99 98 98 94 99 90 70 63 64 89 81 70 71 74 80 89 95 91 85 72 58 66 71 73 77 81 83 80 61 58 57 63 66 66 66 69 74 75 67 69 71 75 80 82
74 84 95 98 98 95 66 71 78 72 79 72 74 83 95 92 91 85 76 67 60 68 75 71 78 83 83 75 55 60 72 59 64 68 69 72 77 70 62 74 75 72 82 92
87 76 82 84 86 68 58 67 62 66 80 86 93 90 93 91 86 77 76 67 60 72 72 77 84 87 86 73 65 94 85 66 67 70 70 74 76 71 66 74 77 79 86 96
86 82 92 82 76 79 71 64 74 89 94 92 92 93 89 83 87 79 77 65 61 70 78 82 89 92 91 87 87 72 64 68 70 71 72 76 79 80 75 74 72 80 96 98
91 85 91 92 77 80 79 94 94 91 91 90 84 82 75 77 81 79 73 77 80 84 80 85 93 93 88 85 84 72 66 70 71 70 72 79 83 86 84 77 78 91 95 95
91 90 95 86 77 94 87 90 90 86 84 81 77 79 73 78 72 78 75 79 86 86 85 89 94 90 87 78 69 71 69 75 78 76 84 96 97 97 91 81 82 72 76 72

GFSCGP_sfc_rhum_003.txt.gz
RH
28 24 26 27 27 24 24 26 30 27 28 33 37 31 22 23 24 25 24 24 22 24 30 32 35 35 37 43 44 42 41 44 43 36 37 35 37 36 36 34 41 46 44 53
26 30 23 26 26 23 26 29 26 29 31 34 33 26 26 24 28 32 30 30 29 29 29 34 36 37 40 39 40 36 35 37 36 34 37 40 41 38 38 41 44 44 46 45
32 22 26 26 31 34 32 28 31 33 33 34 32 26 29 25 24 26 28 29 28 28 29 30 31 36 39 40 41 35 36 39 43 44 37 38 40 39 36 32 33 35 45 45
26 25 32 34 33 33 37 30 38 38 40 35 36 31 31 31 24 26 26 27 28 28 28 28 30 32 37 41 46 44 43 40 41 44 41 45 39 38 39 41 37 40 46 49
28 31 35 38 33 35 39 42 43 40 42 40 39 31 33 33 30 28 29 30 29 31 32 35 40 44 45 48 50 48 44 44 47 42 45 44 48 46 44 43 45 46 47 51
41 34 31 32 34 38 40 42 40 46 45 51 46 39 40 35 34 32 29 31 37 38 36 38 46 43 44 47 52 51 46 44 48 45 45 52 56 55 50 48 46 44 46 52
44 40 39 37 38 38 43 41 49 62 64 56 46 42 38 36 34 33 35 42 48 50 49 47 44 44 46 48 50 48 47 46 50 54 47 52 56 56 51 49 47 51 50 51
58 45 43 42 40 42 50 49 64 56 64 60 51 47 42 40 37 38 44 45 44 44 47 48 47 48 48 50 50 51 49 48 50 56 50 53 55 50 50 50 52 54 55 57
66 50 45 46 45 40 46 60 52 70 89 80 54 48 40 38 38 42 42 43 44 42 43 45 46 49 52 52 56 61 55 50 53 60 55 58 57 55 55 57 57 58 62 60
58 61 48 45 41 42 44 46 56 68 78 71 51 56 42 44 42 45 42 48 48 44 40 41 41 48 54 54 59 63 58 54 57 60 54 53 55 54 55 56 61 62 65 67
50 56 48 47 52 53 52 55 61 60 71 81 89 52 47 43 42 43 42 47 49 47 44 43 44 48 54 59 54 57 58 57 58 53 57 59 58 54 54 58 61 61 63 55
57 66 63 48 47 51 50 52 53 65 62 74 82 59 40 42 38 42 42 46 48 48 46 45 47 51 56 55 53 57 62 63 58 58 58 60 53 48 56 60 62 66 63 59
55 68 60 39 45 44 54 55 60 67 76 72 90 58 40 44 40 40 44 47 48 50 49 48 51 56 58 56 62 65 65 64 58 58 62 58 58 53 60 71 72 70 68 64
64 65 59 53 42 51 65 64 61 66 86 67 68 55 46 43 46 46 48 53 52 52 53 54 58 58 55 60 66 72 70 63 64 69 66 70 70 70 76 75 74 73 68 63
65 78 69 64 61 65 64 65 66 70 68 81 63 60 51 49 53 50 54 52 53 53 58 66 62 55 56 63 69 65 61 65 72 71 71 73 77 76 83 66 61 59 61 65
71 77 85 85 75 73 84 68 70 70 71 72 68 70 50 51 52 58 56 56 58 66 73 65 67 64 61 64 65 65 62 72 75 66 60 58 58 54 55 60 64 62 56 49
78 88 93 81 83 82 78 56 68 62 60 57 64 46 52 52 60 54 54 59 80 77 74 67 57 59 60 64 66 61 63 69 62 55 55 60 63 54 49 46 44 46 49 48
98 93 97 97 90 85 50 49 48 56 53 50 52 53 56 57 54 56 70 80 84 84 74 56 51 58 63 60 58 60 58 55 53 55 63 64 56 46 47 48 48 48 46 48
80 96 99 98 86 75 57 50 54 61 50 51 59 61 59 57 62 68 82 85 83 83 71 54 54 61 64 58 60 47 46 47 49 56 61 52 49 49 51 49 48 48 48 49
84 89 96 99 99 94 66 46 50 56 71 60 60 64 66 65 96 75 86 82 77 67 55 51 56 62 60 57 61 46 48 55 56 58 54 47 51 51 49 49 48 48 48 49
98 98 95 92 95 82 62 56 54 86 89 73 62 65 73 83 97 94 86 81 63 57 52 53 60 60 57 61 64 54 51 58 64 55 52 48 48 50 50 47 48 47 47 64
71 85 92 95 97 94 54 57 84 77 81 73 73 83 96 95 89 80 74 66 59 56 50 53 61 59 60 62 54 48 59 65 69 54 52 48 48 50 46 47 47 47 54 71
84 74 81 82 80 60 54 62 69 76 82 90 94 89 91 89 74 60 65 62 61 57 50 56 59 61 64 66 51 65 64 70 58 56 53 49 50 50 48 47 50 51 54 69
78 69 90 83 73 61 65 74 84 90 88 85 82 85 77 70 64 66 63 62 59 52 56 58 64 63 70 62 60 65 64 54 54 54 53 52 54 55 54 53 54 53 68 70
77 81 88 88 71 72 75 82 80 88 89 85 78 71 69 67 63 62 64 62 58 61 63 66 69 70 72 64 66 56 51 53 51 53 53 58 62 63 59 59 56 63 69 71
85 85 94 88 72 87 87 91 89 85 80 71 61 61 58 59 60 62 62 61 67 70 68 68 66 74 71 65 58 56 56 56 59 60 60 68 70 68 61 56 57 62 70 72

GFSCGP_sfc_rhum_006.txt.gz
RH
16 13 17 19 19 17 16 16 16 14 20 26 24 16 15 16 15 17 16 15 17 21 21 20 23 24 29 38 36 30 33 35 28 25 26 24 26 25 26 26 33 36 34 35
14 20 18 19 20 18 18 18 18 20 22 26 20 18 16 17 20 20 18 18 18 19 19 22 25 28 30 32 32 30 27 29 28 24 28 31 34 29 30 28 32 30 33 32
17 19 19 20 22 24 21 21 26 26 23 24 22 21 18 18 18 18 19 19 18 19 20 22 25 29 32 34 33 29 30 32 34 31 26 26 27 27 27 28 27 29 33 32
20 22 24 23 27 27 25 25 30 29 27 22 24 20 24 18 19 19 20 22 22 21 21 22 24 30 33 38 36 33 33 31 33 36 33 38 32 33 34 34 30 30 31 32
25 25 26 27 29 29 31 33 32 31 28 28 26 20 26 21 22 22 22 24 24 25 27 30 31 32 33 37 39 38 34 33 34 33 38 35 39 36 34 34 35 32 29 32
26 24 26 28 27 28 30 32 33 32 31 40 33 27 28 24 28 24 25 28 30 30 28 31 32 31 33 37 41 39 34 34 37 37 38 45 48 44 38 35 33 30 31 31
27 29 27 29 27 29 26 29 39 51 49 44 33 29 34 29 27 28 31 31 33 35 34 32 31 31 34 38 40 36 35 33 36 40 39 40 40 41 40 38 35 39 35 36
32 38 33 32 35 35 35 35 51 49 49 38 31 30 30 28 28 29 29 32 31 32 33 32 31 32 36 39 40 39 36 34 33 37 36 35 40 41 38 39 40 41 42 44
39 37 32 34 31 32 35 43 39 55 79 64 30 33 31 28 28 27 29 31 32 31 31 31 31 33 37 40 41 45 41 34 34 39 42 46 47 45 46 46 45 42 47 44
42 43 35 32 32 33 33 35 44 44 76 45 23 26 25 35 32 31 29 31 32 30 30 30 30 33 37 38 44 45 43 40 41 43 44 45 45 44 46 46 48 49 50 52
34 39 36 37 38 37 38 41 41 38 48 54 53 28 31 30 30 31 31 29 32 34 32 32 33 33 35 40 41 42 42 44 44 42 44 45 46 45 45 46 49 50 52 47
43 46 40 33 39 38 37 40 38 50 45 53 62 44 28 29 29 32 30 31 33 35 33 32 34 37 40 43 42 42 44 44 48 43 43 45 46 44 46 50 51 54 56 54
41 49 38 36 42 38 42 40 42 48 57 62 82 44 26 28 26 27 33 34 35 36 33 33 36 41 43 42 44 52 53 48 43 41 41 42 48 48 52 56 58 63 67 67
56 46 43 32 30 34 38 34 36 43 71 53 51 39 30 26 29 30 34 38 36 36 36 40 47 45 44 47 50 50 48 47 44 43 43 46 51 61 65 68 60 56 52 50
48 50 48 40 36 35 40 40 36 40 46 61 49 37 32 32 33 36 39 39 39 40 48 49 48 49 45 42 43 45 46 43 48 47 44 50 48 46 44 44 43 42 40 34
50 58 65 60 46 40 50 40 37 41 42 43 43 44 33 33 37 42 43 43 44 52 52 54 57 50 36 37 45 48 40 43 50 46 48 45 45 42 41 40 39 36 35 34
62 71 76 85 60 63 85 52 38 38 40 40 51 38 39 42 46 46 46 48 60 62 62 64 55 34 37 42 51 40 37 43 48 45 43 45 46 40 38 33 30 34 38 40
94 82 92 99 92 92 46 33 34 40 37 32 33 40 45 44 44 39 55 66 82 77 55 46 38 35 38 42 39 38 36 40 43 44 43 45 42 38 33 33 34 37 38 40
61 84 100 100 74 54 43 38 42 45 44 39 46 49 49 45 43 49 73 82 72 63 50 43 37 35 38 42 38 39 39 38 40 42 46 44 40 38 33 34 37 38 40 41
68 79 92 92 99 92 48 38 39 42 56 51 62 76 77 56 84 86 68 74 64 44 39 35 31 34 40 44 40 43 42 41 40 44 48 40 39 37 34 38 40 40 39 41
95 97 98 90 99 69 41 44 44 83 80 68 79 82 82 85 87 82 74 55 36 34 33 31 29 30 37 39 42 48 40 38 35 40 42 40 38 34 36 38 39 40 41 52
65 92 97 96 99 96 43 44 83 65 72 82 78 72 73 72 74 57 42 35 31 32 30 27 30 32 34 36 43 44 35 30 36 41 42 42 38 34 33 39 41 42 47 61
67 58 59 67 67 42 42 52 53 67 79 71 76 64 68 64 48 38 35 31 30 31 28 27 32 37 35 34 41 40 33 36 45 43 44 42 39 38 38 41 46 46 47 68
51 48 71 73 54 46 51 49 60 71 78 76 72 56 50 48 39 35 32 31 33 28 29 33 35 36 39 39 48 44 44 46 48 45 43 41 41 43 43 44 45 43 60 71
54 52 61 72 59 55 51 66 77 76 82 77 52 47 41 35 34 31 31 31 29 30 34 36 37 39 36 37 56 51 54 49 42 41 42 44 48 50 50 45 43 52 59 66
50 54 85 94 70 69 76 75 76 82 69 48 44 38 32 31 32 30 30 30 31 35 39 37 39 43 41 41 46 52 47 51 53 52 48 54 61 60 55 45 46 70 70 69

GFSCGP_sfc_rhum_009.txt.gz
RH
12 11 14 15 14 12 11 11 11 11 14 16 16 12 13 14 12 14 13 13 12 12 18 22 22 22 25 31 29 27 29 33 26 24 25 24 25 25 26 25 30 33 32 32
11 16 14 15 15 15 14 14 14 14 15 18 15 14 14 14 16 14 14 16 18 19 19 21 24 25 28 31 32 29 27 27 24 24 27 31 33 28 28 27 30 28 33 32
16 16 16 17 17 18 17 18 22 20 16 15 17 16 15 15 15 15 16 15 16 18 20 22 25 30 32 32 30 28 29 30 31 29 26 27 26 27 26 28 29 29 33 29
17 18 18 18 21 20 21 20 22 21 20 19 15 18 18 16 17 18 19 19 19 18 19 20 24 28 34 35 33 31 30 29 30 35 32 37 33 34 34 33 31 30 30 28
22 20 22 23 23 22 26 25 24 23 21 20 17 15 22 16 18 20 21 22 22 22 24 25 27 28 30 35 37 34 31 30 32 32 36 37 40 38 35 35 37 39 31 32
20 18 21 23 21 22 23 25 24 25 23 33 23 20 22 20 22 22 23 25 25 24 26 26 27 27 31 34 36 35 31 29 33 36 37 41 48 47 37 37 36 32 34 31
21 23 22 23 23 23 20 24 38 46 42 41 24 20 29 23 21 22 26 25 27 29 28 27 26 27 31 33 34 34 30 30 30 35 37 36 36 40 40 38 37 39 35 36
24 37 25 24 28 29 26 28 48 43 42 32 22 22 25 22 23 23 23 25 26 28 28 28 28 29 29 32 32 36 35 33 29 33 36 37 39 39 38 40 41 42 41 42
30 31 24 26 24 25 28 34 28 46 57 55 21 21 23 23 24 23 24 25 26 25 25 26 26 27 30 32 34 38 38 34 34 37 39 42 42 43 44 45 45 42 45 40
28 36 25 25 25 26 28 25 41 38 65 40 19 18 24 30 26 25 23 24 24 24 24 26 26 28 30 30 34 36 38 35 35 38 40 39 42 43 43 43 45 45 45 46
24 28 30 26 29 27 30 32 33 27 38 48 43 26 24 22 24 25 26 23 25 25 26 27 28 31 32 31 34 35 38 40 39 37 39 43 42 42 41 41 42 50 59 51
33 34 39 23 29 29 29 30 30 48 39 43 52 41 22 23 22 24 24 24 26 28 28 28 28 33 36 38 36 36 41 41 38 37 37 37 37 37 38 42 51 57 52 55
33 41 39 28 34 30 31 29 29 35 49 51 75 43 22 23 26 22 24 26 28 33 34 34 34 35 39 39 39 40 40 39 38 36 34 34 36 39 44 46 47 48 48 45
52 33 35 39 28 22 28 24 23 30 55 51 44 32 24 23 25 25 27 28 35 35 36 39 40 39 40 42 44 35 36 38 37 35 33 36 41 41 42 44 43 40 36 35
37 44 38 32 25 24 26 28 26 26 29 46 42 32 28 27 30 31 31 32 34 36 41 45 43 42 41 38 30 32 37 38 35 37 35 39 39 38 39 40 37 36 34 31
38 54 58 51 29 27 35 27 25 25 29 30 29 32 25 27 28 32 40 41 39 44 50 51 41 36 32 29 30 32 37 33 35 38 37 36 38 44 43 38 36 32 32 32
51 60 61 73 52 58 83 46 27 27 27 34 46 34 27 32 40 46 49 43 51 57 60 48 40 34 31 28 30 36 31 31 33 34 34 34 42 47 40 34 28 30 33 35
73 65 86 96 90 92 39 26 26 30 29 26 26 28 34 45 44 44 49 53 56 56 53 40 36 32 27 24 25 33 31 30 32 33 33 36 42 44 37 32 30 32 34 36
46 71 94 99 66 49 36 35 36 41 41 29 38 43 47 45 44 48 54 54 57 52 40 33 28 24 23 22 25 30 31 33 33 36 33 35 42 45 37 32 33 34 35 37
56 70 81 93 98 90 48 32 33 35 57 46 51 57 70 54 74 50 53 51 48 36 27 25 24 24 22 22 23 26 27 29 38 35 30 35 36 39 37 34 36 35 34 36
92 95 97 86 97 65 34 37 37 67 72 58 61 69 63 66 59 57 53 40 28 24 23 23 22 22 22 23 25 26 25 29 32 33 32 38 40 38 34 34 34 34 36 48
69 92 97 88 99 91 36 38 73 53 51 61 68 73 68 56 51 44 34 29 25 22 21 20 21 23 24 22 24 25 24 26 33 34 40 45 44 36 30 36 34 37 41 54
55 52 60 60 58 36 42 49 49 49 62 67 81 76 70 46 39 34 30 26 24 21 18 18 20 25 24 23 23 25 37 45 52 59 57 62 45 37 31 34 36 39 42 56
40 32 62 65 44 39 47 47 56 63 70 72 76 59 42 40 34 30 27 26 22 18 18 18 23 25 28 28 28 31 47 53 50 58 54 46 40 40 37 33 35 38 53 65
47 42 52 60 44 42 40 61 62 63 65 67 48 39 39 32 30 28 26 22 21 22 22 25 28 28 30 31 35 35 46 47 54 56 45 45 43 42 41 38 40 47 56 64
42 47 70 76 51 64 65 62 59 58 60 44 40 36 31 29 28 25 24 25 24 26 28 26 27 31 34 39 42 48 49 56 57 58 50 53 56 52 50 43 44 70 71 66

GFSCGP_sfc_rhum_012.txt.gz
RH
12 13 18 16 14 11 10 10 10 12 13 14 12 12 12 13 12 16 18 16 16 23 26 27 32 35 37 40 41 46 61 50 44 44 48 50 54 48 50 46 46 47 52 52
10 17 14 12 12 12 12 13 13 12 13 13 14 13 14 14 16 15 16 18 23 24 25 28 36 46 46 43 48 40 38 44 43 40 48 50 50 49 47 49 53 50 54 51
20 16 13 14 15 16 15 16 23 20 16 14 15 16 17 16 16 17 18 19 20 24 28 30 35 42 48 47 47 38 40 42 48 50 41 45 48 49 48 47 48 50 52 47
17 15 16 16 18 20 20 21 21 19 19 20 14 21 19 18 20 20 21 23 23 22 23 27 34 42 47 50 50 42 41 39 42 48 49 52 50 52 54 58 52 49 49 53
20 19 20 21 22 20 24 22 21 21 22 21 17 21 22 18 21 23 25 25 27 28 29 31 34 36 40 49 52 47 41 38 42 45 50 56 61 61 58 61 60 56 56 54
19 16 20 22 20 19 21 23 22 23 26 48 20 22 36 25 25 24 25 27 28 28 30 30 31 34 39 48 50 48 42 38 40 46 53 54 56 58 59 61 59 55 54 54
20 22 20 19 24 22 20 26 52 67 60 58 26 22 33 24 21 23 27 28 31 33 34 32 31 32 38 43 46 45 44 41 42 44 47 55 60 62 60 60 60 59 57 60
26 39 23 21 25 26 24 26 67 58 65 48 20 22 31 25 24 24 24 26 28 30 33 33 34 35 36 40 43 45 44 42 42 49 51 57 59 58 58 62 60 63 63 64
29 32 22 22 22 22 29 36 24 48 68 68 25 28 26 24 25 23 24 24 26 27 29 31 33 35 37 40 45 50 46 44 47 53 58 59 59 62 63 61 63 64 65 53
24 36 22 20 22 24 25 22 42 54 72 51 25 23 39 31 28 28 23 25 25 25 26 31 31 37 39 42 49 56 52 49 48 50 58 54 56 57 58 60 62 66 65 61
25 28 30 24 27 27 28 30 32 28 46 60 56 33 22 24 25 26 27 25 29 30 30 32 33 36 39 43 46 54 50 47 48 49 51 55 54 54 56 58 64 64 67 64
29 32 60 24 24 22 24 28 29 70 50 65 66 43 23 24 24 28 27 26 30 34 35 35 38 42 41 43 44 45 48 48 48 49 49 49 51 50 54 58 59 61 62 63
34 44 58 35 34 27 24 25 26 36 64 62 79 51 22 26 33 29 29 29 34 35 33 37 41 42 41 42 46 46 47 45 43 42 41 45 49 52 54 55 58 58 59 56
54 30 36 50 30 24 27 22 21 26 72 63 56 37 28 28 33 30 30 32 33 36 39 42 44 43 42 44 43 42 40 46 44 39 40 46 52 51 53 55 55 55 52 49
36 46 39 33 27 25 26 26 25 27 30 49 41 29 26 31 30 39 40 39 39 41 42 45 49 46 40 40 36 35 38 43 46 44 42 50 49 49 53 58 54 54 52 45
38 68 67 59 28 31 37 31 29 26 25 25 30 33 26 30 38 43 45 44 47 48 50 49 45 40 36 36 34 32 34 41 49 52 50 46 48 49 56 61 58 53 50 47
53 74 76 80 56 64 89 56 28 28 26 30 50 36 36 43 45 44 46 48 53 51 49 49 40 38 35 30 28 29 31 39 49 49 45 55 65 61 60 54 48 45 50 53
73 76 93 95 90 87 37 27 27 32 28 26 26 34 42 46 45 42 50 54 53 50 49 43 36 32 29 28 27 29 25 28 30 36 48 66 62 58 50 52 49 51 50 55
43 81 95 100 71 52 40 34 40 46 46 31 42 48 49 47 45 52 51 48 50 47 41 31 26 27 27 25 26 27 28 26 28 28 53 63 58 49 55 52 51 52 53 57
52 76 90 100 94 82 54 32 34 36 65 50 54 59 62 51 80 59 49 46 40 29 25 24 24 22 23 26 26 27 27 28 30 50 51 60 64 56 58 57 52 52 53 53
92 94 97 92 90 74 37 34 36 65 77 60 61 62 65 72 71 52 44 36 26 24 22 24 21 23 25 24 26 28 28 30 38 51 54 71 84 71 70 54 50 52 56 68
85 94 96 88 98 88 35 37 69 63 60 59 58 69 82 81 62 40 33 29 25 23 20 18 21 24 26 24 27 28 31 35 48 57 56 57 60 59 45 52 54 55 60 76
61 65 74 68 73 47 42 48 53 67 72 79 72 75 65 69 42 35 32 29 26 20 19 20 22 26 27 26 26 33 38 42 51 53 59 60 60 51 46 51 55 58 64 84
35 30 76 71 46 38 43 46 56 60 63 64 61 55 56 42 39 33 31 28 24 21 22 23 27 27 30 29 33 41 44 50 52 56 58 57 54 53 50 48 52 61 84 90
55 42 51 58 43 41 49 58 63 62 66 60 52 41 38 35 33 31 28 27 26 25 27 28 30 32 35 34 42 44 46 55 56 58 58 65 72 69 60 51 65 81 85 81
47 48 70 78 52 62 64 64 62 61 67 60 39 37 32 31 29 26 29 29 28 31 30 29 32 37 38 43 47 48 51 58 71 77 73 75 78 79 69 64 64 73 75 64